CHINASAT 2D (43920 NORAD) Tracking and Keplerian Element Data

This shows tracking and keplerian element data for the satellite.

Feedback or suggestion? Click here.




ElementValue
Catalog43920
NameCHINASAT 2D
Epoch Orbit26
Epoch Day21.88560351
Epoch Year2019
RAAN237.9458
Inclination0.0556
Eccentricity0.0001736
Argument of Perigee72.6519
Mean Anonmoly259.1473
Mean Motion1.00267893
Decay Rate-3.44E-06
L11 43920U 19001A 19021.88560351 -.00000344 00000-0 00000+0 0 9999
L22 43920 0.0556 237.9458 0001736 72.6519 259.1473 1.00267893 266

Live tracking and technical data element details for CHINASAT 2D (NORAD 43920). CHINASAT 2D can be tracked NOW for your location showing map with azimuth and elevation plus other details from your city location.

Track the satellite on the map from your city or location and see movement details for azimuth, elevation, latitude, longitude, range, height, and movement on the map or in text.







IsCatalogInMostPopularTable: catalog: 43920, numindb: 5
Update: records affected: 1



GetName: 43920 CHINASAT 2D

Hit Count: updated at: Wed, 23 Jan 2019 03:11:33 GMT